Location: Austin
(30.3000°N, 97.7500°W)
Time: 05:22:15
(UTC-06:00)

USA 234 - Pass Details

Date: 03 March 2026
Orbit: 1102 x 1106 km, 123.0° (Epoch: 4 January)

Event Time Altitude Azimuth Distance (km) Brightness Sun altitude
Exits shadow 21:00:22 28° 11° (N) 1,924 4.5 -32.8°
Drops below altitude 10° 21:04:19 10° 338° (NNW) 2,964 5.9 -33.6°
Sets 21:07:04 0° 329° (NNW) 3,924 6.7 -34.2°
